owner,sensor,date,latitude,longitude,vertical_datum,wind_speed,wind_to_direction,wind_speed_of_gust,qcFlag 
DISL,ioos:station:DISL:KATA:1,2011-11-01T00:00:00Z,30.2583,-88.2131,0.0,3.66,7.597,-9999.0,'1111122,1111122,1111122' 
DISL,ioos:station:DISL:KATA:1,2011-11-01T00:30:00Z,30.2583,-88.2131,0.0,3.31,350.7,-9999.0,'1111122,1111122,1111122' 
DISL,ioos:station:DISL:KATA:1,2011-11-01T01:00:00Z,30.2583,-88.2131,0.0,2.61,4.179,-9999.0,'1111122,1111122,1111122' 
DISL,ioos:station:DISL:KATA:1,2011-11-01T01:30:00Z,30.2583,-88.2131,0.0,2.33,9.49,-9999.0,'1111122,1111122,1111122' 
DISL,ioos:station:DISL:KATA:1,2011-11-01T02:00:00Z,30.2583,-88.2131,0.0,2.29,7.144,-9999.0,'1111122,1111122,1111122' 
DISL,ioos:station:DISL:KATA:1,2011-11-01T02:30:00Z,30.2583,-88.2131,0.0,2.74,10.4,-9999.0,'1111122,1111122,1111122' 
DISL,ioos:station:DISL:KATA:1,2011-11-01T03:00:00Z,30.2583,-88.2131,0.0,4.32,17.5,-9999.0,'1111122,1111122,1111122' 
DISL,ioos:station:DISL:KATA:1,2011-11-01T03:30:00Z,30.2583,-88.2131,0.0,4.97,19.74,-9999.0,'1111122,1111122,1111122' 
DISL,ioos:station:DISL:KATA:1,2011-11-01T04:00:00Z,30.2583,-88.2131,0.0,4.95,21.93,-9999.0,'1111122,1111122,1111122' 
DISL,ioos:station:DISL:KATA:1,2011-11-01T04:30:00Z,30.2583,-88.2131,0.0,5.84,27.67,-9999.0,'1111122,1111122,1111122' 
DISL,ioos:station:DISL:KATA:1,2011-11-01T05:00:00Z,30.2583,-88.2131,0.0,6.35,28.3,-9999.0,'1111122,1111122,1111122' 
DISL,ioos:station:DISL:KATA:1,2011-11-01T05:30:00Z,30.2583,-88.2131,0.0,5.43,35.33,-9999.0,'1111122,1111122,1111122' 
DISL,ioos:station:DISL:KATA:1,2011-11-01T06:00:00Z,30.2583,-88.2131,0.0,5.55,25.17,-9999.0,'1111122,1111122,1111122' 
DISL,ioos:station:DISL:KATA:1,2011-11-01T06:30:00Z,30.2583,-88.2131,0.0,5.72,28.69,-9999.0,'1111122,1111122,1111122' 
DISL,ioos:station:DISL:KATA:1,2011-11-01T07:00:00Z,30.2583,-88.2131,0.0,5.35,31.55,-9999.0,'1111122,1111122,1111122' 
DISL,ioos:station:DISL:KATA:1,2011-11-01T07:30:00Z,30.2583,-88.2131,0.0,5.3,33.26,-9999.0,'1111122,1111122,1111122' 
DISL,ioos:station:DISL:KATA:1,2011-11-01T08:00:00Z,30.2583,-88.2131,0.0,5.41,34.54,-9999.0,'1111122,1111122,1111122' 
DISL,ioos:station:DISL:KATA:1,2011-11-01T08:30:00Z,30.2583,-88.2131,0.0,5.26,37.94,-9999.0,'1111122,1111122,1111122' 
DISL,ioos:station:DISL:KATA:1,2011-11-01T09:00:00Z,30.2583,-88.2131,0.0,5.24,44.01,-9999.0,'1111122,1111122,1111122' 
DISL,ioos:station:DISL:KATA:1,2011-11-01T09:30:00Z,30.2583,-88.2131,0.0,4.77,41.66,-9999.0,'1111122,1111122,1111122' 
DISL,ioos:station:DISL:KATA:1,2011-11-01T10:00:00Z,30.2583,-88.2131,0.0,5.22,47.81,-9999.0,'1111122,1111122,1111122' 
DISL,ioos:station:DISL:KATA:1,2011-11-01T10:30:00Z,30.2583,-88.2131,0.0,6.5,55.77,-9999.0,'1111122,1111122,1111122' 
DISL,ioos:station:DISL:KATA:1,2011-11-01T11:00:00Z,30.2583,-88.2131,0.0,7.09,49.01,-9999.0,'1111122,1111122,1111122' 
DISL,ioos:station:DISL:KATA:1,2011-11-01T11:30:00Z,30.2583,-88.2131,0.0,7.81,54.12,-9999.0,'1111122,1111122,1111122' 
DISL,ioos:station:DISL:KATA:1,2011-11-01T12:00:00Z,30.2583,-88.2131,0.0,7.49,63.27,-9999.0,'1111122,1111122,1111122' 
DISL,ioos:station:DISL:KATA:1,2011-11-01T12:30:00Z,30.2583,-88.2131,0.0,7.04,55.38,-9999.0,'1111122,1111122,1111122' 
DISL,ioos:station:DISL:KATA:1,2011-11-01T13:00:00Z,30.2583,-88.2131,0.0,6.58,65.41,-9999.0,'1111122,1111122,1111122' 
DISL,ioos:station:DISL:KATA:1,2011-11-01T13:30:00Z,30.2583,-88.2131,0.0,7.04,70.9,-9999.0,'1111122,1111122,1111122' 
DISL,ioos:station:DISL:KATA:1,2011-11-01T14:00:00Z,30.2583,-88.2131,0.0,7.34,78.38,-9999.0,'1111122,1111122,1111122' 
DISL,ioos:station:DISL:KATA:1,2011-11-01T14:30:00Z,30.2583,-88.2131,0.0,7.25,75.63,-9999.0,'1111122,1111122,1111122' 
DISL,ioos:station:DISL:KATA:1,2011-11-01T15:00:00Z,30.2583,-88.2131,0.0,7.72,78.02,-9999.0,'1111122,1111122,1111122' 
DISL,ioos:station:DISL:KATA:1,2011-11-01T15:30:00Z,30.2583,-88.2131,0.0,7.53,77.03,-9999.0,'1111122,1111122,1111122' 
DISL,ioos:station:DISL:KATA:1,2011-11-01T16:00:00Z,30.2583,-88.2131,0.0,7.24,74.6,-9999.0,'1111122,1111122,1111122' 
DISL,ioos:station:DISL:KATA:1,2011-11-01T16:30:00Z,30.2583,-88.2131,0.0,7.0,75.38,-9999.0,'1111122,1111122,1111122' 
DISL,ioos:station:DISL:KATA:1,2011-11-01T17:00:00Z,30.2583,-88.2131,0.0,7.31,75.98,-9999.0,'1111122,1111122,1111122' 
DISL,ioos:station:DISL:KATA:1,2011-11-01T17:30:00Z,30.2583,-88.2131,0.0,9.4,97.0,-9999.0,'1111122,1111122,1111122' 
DISL,ioos:station:DISL:KATA:1,2011-11-01T18:00:00Z,30.2583,-88.2131,0.0,9.54,95.8,-9999.0,'1111122,1111122,1111122' 
DISL,ioos:station:DISL:KATA:1,2011-11-01T18:30:00Z,30.2583,-88.2131,0.0,8.72,96.2,-9999.0,'1111122,1111122,1111122' 
DISL,ioos:station:DISL:KATA:1,2011-11-01T19:00:00Z,30.2583,-88.2131,0.0,8.6,96.2,-9999.0,'1111122,1111122,1111122' 
DISL,ioos:station:DISL:KATA:1,2011-11-01T19:30:00Z,30.2583,-88.2131,0.0,7.67,97.4,-9999.0,'1111122,1111122,1111122' 
DISL,ioos:station:DISL:KATA:1,2011-11-01T20:00:00Z,30.2583,-88.2131,0.0,7.61,99.7,-9999.0,'1111122,1111122,1111122' 
DISL,ioos:station:DISL:KATA:1,2011-11-01T20:30:00Z,30.2583,-88.2131,0.0,7.79,102.6,-9999.0,'1111122,1111122,1111122' 
DISL,ioos:station:DISL:KATA:1,2011-11-01T21:00:00Z,30.2583,-88.2131,0.0,7.47,110.1,-9999.0,'1111122,1111122,1111122' 
DISL,ioos:station:DISL:KATA:1,2011-11-01T21:30:00Z,30.2583,-88.2131,0.0,6.73,116.6,-9999.0,'1111122,1111122,1111122' 
DISL,ioos:station:DISL:KATA:1,2011-11-01T22:00:00Z,30.2583,-88.2131,0.0,6.02,117.5,-9999.0,'1111122,1111122,1111122' 
DISL,ioos:station:DISL:KATA:1,2011-11-01T22:30:00Z,30.2583,-88.2131,0.0,5.78,120.3,-9999.0,'1111122,1111122,1111122' 
DISL,ioos:station:DISL:KATA:1,2011-11-01T23:00:00Z,30.2583,-88.2131,0.0,5.31,113.2,-9999.0,'1111122,1111122,1111122' 
DISL,ioos:station:DISL:KATA:1,2011-11-01T23:30:00Z,30.2583,-88.2131,0.0,4.61,106.5,-9999.0,'1111122,1111122,1111122' 
DISL,ioos:station:DISL:KATA:1,2011-11-02T00:00:00Z,30.2583,-88.2131,0.0,4.16,112.5,-9999.0,'1111122,1111122,1111122' 
DISL,ioos:station:DISL:KATA:1,2011-11-02T00:30:00Z,30.2583,-88.2131,0.0,2.51,76.2,-9999.0,'1111122,1111122,1111122' 
DISL,ioos:station:DISL:KATA:1,2011-11-02T01:00:00Z,30.2583,-88.2131,0.0,2.74,74.9,-9999.0,'1111122,1111122,1111122' 
DISL,ioos:station:DISL:KATA:1,2011-11-02T01:30:00Z,30.2583,-88.2131,0.0,2.99,68.79,-9999.0,'1111122,1111122,1111122' 
DISL,ioos:station:DISL:KATA:1,2011-11-02T02:00:00Z,30.2583,-88.2131,0.0,2.58,67.11,-9999.0,'1111122,1111122,1111122' 
DISL,ioos:station:DISL:KATA:1,2011-11-02T02:30:00Z,30.2583,-88.2131,0.0,2.58,65.65,-9999.0,'1111122,1111122,1111122' 
DISL,ioos:station:DISL:KATA:1,2011-11-02T03:00:00Z,30.2583,-88.2131,0.0,2.87,64.74,-9999.0,'1111122,1111122,1111122' 
DISL,ioos:station:DISL:KATA:1,2011-11-02T03:30:00Z,30.2583,-88.2131,0.0,3.3,69.47,-9999.0,'1111122,1111122,1111122' 
DISL,ioos:station:DISL:KATA:1,2011-11-02T04:00:00Z,30.2583,-88.2131,0.0,2.98,69.32,-9999.0,'1111122,1111122,1111122' 
DISL,ioos:station:DISL:KATA:1,2011-11-02T04:30:00Z,30.2583,-88.2131,0.0,3.03,63.55,-9999.0,'1111122,1111122,1111122' 
DISL,ioos:station:DISL:KATA:1,2011-11-02T05:00:00Z,30.2583,-88.2131,0.0,2.99,40.67,-9999.0,'1111122,1111122,1111122' 
DISL,ioos:station:DISL:KATA:1,2011-11-02T05:30:00Z,30.2583,-88.2131,0.0,3.82,48.99,-9999.0,'1111122,1111122,1111122' 
DISL,ioos:station:DISL:KATA:1,2011-11-02T06:00:00Z,30.2583,-88.2131,0.0,3.94,65.65,-9999.0,'1111122,1111122,1111122' 
DISL,ioos:station:DISL:KATA:1,2011-11-02T06:30:00Z,30.2583,-88.2131,0.0,4.91,68.49,-9999.0,'1111122,1111122,1111122' 
DISL,ioos:station:DISL:KATA:1,2011-11-02T07:00:00Z,30.2583,-88.2131,0.0,5.8,69.65,-9999.0,'1111122,1111122,1111122' 
DISL,ioos:station:DISL:KATA:1,2011-11-02T07:30:00Z,30.2583,-88.2131,0.0,6.08,73.74,-9999.0,'1111122,1111122,1111122' 
DISL,ioos:station:DISL:KATA:1,2011-11-02T08:00:00Z,30.2583,-88.2131,0.0,6.66,70.93,-9999.0,'1111122,1111122,1111122' 
DISL,ioos:station:DISL:KATA:1,2011-11-02T08:30:00Z,30.2583,-88.2131,0.0,7.16,70.69,-9999.0,'1111122,1111122,1111122' 
DISL,ioos:station:DISL:KATA:1,2011-11-02T09:00:00Z,30.2583,-88.2131,0.0,6.68,68.64,-9999.0,'1111122,1111122,1111122' 
DISL,ioos:station:DISL:KATA:1,2011-11-02T09:30:00Z,30.2583,-88.2131,0.0,6.73,71.86,-9999.0,'1111122,1111122,1111122' 
DISL,ioos:station:DISL:KATA:1,2011-11-02T10:00:00Z,30.2583,-88.2131,0.0,6.89,68.03,-9999.0,'1111122,1111122,1111122' 
DISL,ioos:station:DISL:KATA:1,2011-11-02T10:30:00Z,30.2583,-88.2131,0.0,7.77,68.05,-9999.0,'1111122,1111122,1111122' 
DISL,ioos:station:DISL:KATA:1,2011-11-02T11:00:00Z,30.2583,-88.2131,0.0,7.8,68.85,-9999.0,'1111122,1111122,1111122' 
DISL,ioos:station:DISL:KATA:1,2011-11-02T11:30:00Z,30.2583,-88.2131,0.0,8.51,68.76,-9999.0,'1111122,1111122,1111122' 
DISL,ioos:station:DISL:KATA:1,2011-11-02T12:00:00Z,30.2583,-88.2131,0.0,8.46,68.69,-9999.0,'1111122,1111122,1111122' 
DISL,ioos:station:DISL:KATA:1,2011-11-02T12:30:00Z,30.2583,-88.2131,0.0,8.65,69.16,-9999.0,'1111122,1111122,1111122' 
DISL,ioos:station:DISL:KATA:1,2011-11-02T13:00:00Z,30.2583,-88.2131,0.0,8.49,70.56,-9999.0,'1111122,1111122,1111122' 
DISL,ioos:station:DISL:KATA:1,2011-11-02T13:30:00Z,30.2583,-88.2131,0.0,8.87,69.76,-9999.0,'1111122,1111122,1111122' 
DISL,ioos:station:DISL:KATA:1,2011-11-02T14:00:00Z,30.2583,-88.2131,0.0,8.08,66.95,-9999.0,'1111122,1111122,1111122' 
DISL,ioos:station:DISL:KATA:1,2011-11-02T14:30:00Z,30.2583,-88.2131,0.0,9.24,74.22,-9999.0,'1111122,1111122,1111122' 
DISL,ioos:station:DISL:KATA:1,2011-11-02T15:00:00Z,30.2583,-88.2131,0.0,9.3,76.04,-9999.0,'1111122,1111122,1111122' 
DISL,ioos:station:DISL:KATA:1,2011-11-02T15:30:00Z,30.2583,-88.2131,0.0,8.93,73.81,-9999.0,'1111122,1111122,1111122' 
DISL,ioos:station:DISL:KATA:1,2011-11-02T16:00:00Z,30.2583,-88.2131,0.0,9.15,76.17,-9999.0,'1111122,1111122,1111122' 
DISL,ioos:station:DISL:KATA:1,2011-11-02T16:30:00Z,30.2583,-88.2131,0.0,9.17,76.51,-9999.0,'1111122,1111122,1111122' 
DISL,ioos:station:DISL:KATA:1,2011-11-02T17:00:00Z,30.2583,-88.2131,0.0,9.91,79.81,-9999.0,'1111122,1111122,1111122' 
DISL,ioos:station:DISL:KATA:1,2011-11-02T17:30:00Z,30.2583,-88.2131,0.0,10.03,80.9,-9999.0,'1111122,1111122,1111122' 
DISL,ioos:station:DISL:KATA:1,2011-11-02T18:00:00Z,30.2583,-88.2131,0.0,9.27,78.04,-9999.0,'1111122,1111122,1111122' 
DISL,ioos:station:DISL:KATA:1,2011-11-02T18:30:00Z,30.2583,-88.2131,0.0,8.74,76.46,-9999.0,'1111122,1111122,1111122' 
DISL,ioos:station:DISL:KATA:1,2011-11-02T19:00:00Z,30.2583,-88.2131,0.0,9.25,96.8,-9999.0,'1111122,1111122,1111122' 
DISL,ioos:station:DISL:KATA:1,2011-11-02T19:30:00Z,30.2583,-88.2131,0.0,10.03,95.7,-9999.0,'1111122,1111122,1111122' 
DISL,ioos:station:DISL:KATA:1,2011-11-02T20:00:00Z,30.2583,-88.2131,0.0,9.88,95.7,-9999.0,'1111122,1111122,1111122' 
DISL,ioos:station:DISL:KATA:1,2011-11-02T20:30:00Z,30.2583,-88.2131,0.0,9.9,94.6,-9999.0,'1111122,1111122,1111122' 
DISL,ioos:station:DISL:KATA:1,2011-11-02T21:00:00Z,30.2583,-88.2131,0.0,9.21,96.8,-9999.0,'1111122,1111122,1111122' 
DISL,ioos:station:DISL:KATA:1,2011-11-02T21:30:00Z,30.2583,-88.2131,0.0,9.58,89.2,-9999.0,'1111122,1111122,1111122' 
DISL,ioos:station:DISL:KATA:1,2011-11-02T22:00:00Z,30.2583,-88.2131,0.0,6.65,94.5,-9999.0,'1111122,1111122,1111122' 
DISL,ioos:station:DISL:KATA:1,2011-11-02T22:30:00Z,30.2583,-88.2131,0.0,7.49,97.9,-9999.0,'1111122,1111122,1111122' 
DISL,ioos:station:DISL:KATA:1,2011-11-02T23:00:00Z,30.2583,-88.2131,0.0,6.4,87.8,-9999.0,'1111122,1111122,1111122' 
DISL,ioos:station:DISL:KATA:1,2011-11-02T23:30:00Z,30.2583,-88.2131,0.0,6.51,82.1,-9999.0,'1111122,1111122,1111122' 
DISL,ioos:station:DISL:KATA:1,2011-11-03T00:00:00Z,30.2583,-88.2131,0.0,7.19,79.09,-9999.0,'1111122,1111122,1111122' 
DISL,ioos:station:DISL:KATA:1,2011-11-03T00:30:00Z,30.2583,-88.2131,0.0,6.71,81.0,-9999.0,'1111122,1111122,1111122' 
DISL,ioos:station:DISL:KATA:1,2011-11-03T01:00:00Z,30.2583,-88.2131,0.0,6.43,75.55,-9999.0,'1111122,1111122,1111122' 
DISL,ioos:station:DISL:KATA:1,2011-11-03T01:30:00Z,30.2583,-88.2131,0.0,6.07,75.2,-9999.0,'1111122,1111122,1111122' 
DISL,ioos:station:DISL:KATA:1,2011-11-03T02:00:00Z,30.2583,-88.2131,0.0,5.85,74.22,-9999.0,'1111122,1111122,1111122' 
DISL,ioos:station:DISL:KATA:1,2011-11-03T02:30:00Z,30.2583,-88.2131,0.0,5.81,76.51,-9999.0,'1111122,1111122,1111122' 
DISL,ioos:station:DISL:KATA:1,2011-11-03T03:00:00Z,30.2583,-88.2131,0.0,5.31,83.5,-9999.0,'1111122,1111122,1111122' 
DISL,ioos:station:DISL:KATA:1,2011-11-03T03:30:00Z,30.2583,-88.2131,0.0,4.69,90.0,-9999.0,'1111122,1111122,1111122' 
DISL,ioos:station:DISL:KATA:1,2011-11-03T04:00:00Z,30.2583,-88.2131,0.0,4.54,80.6,-9999.0,'1111122,1111122,1111122' 
DISL,ioos:station:DISL:KATA:1,2011-11-03T04:30:00Z,30.2583,-88.2131,0.0,6.69,121.6,-9999.0,'1111122,1111122,1111122' 
DISL,ioos:station:DISL:KATA:1,2011-11-03T05:00:00Z,30.2583,-88.2131,0.0,7.9,128.2,-9999.0,'1111122,1111122,1111122' 
DISL,ioos:station:DISL:KATA:1,2011-11-03T05:30:00Z,30.2583,-88.2131,0.0,7.95,127.3,-9999.0,'1111122,1111122,1111122' 
DISL,ioos:station:DISL:KATA:1,2011-11-03T06:00:00Z,30.2583,-88.2131,0.0,8.31,127.7,-9999.0,'1111122,1111122,1111122' 
DISL,ioos:station:DISL:KATA:1,2011-11-03T06:30:00Z,30.2583,-88.2131,0.0,7.99,125.5,-9999.0,'1111122,1111122,1111122' 
DISL,ioos:station:DISL:KATA:1,2011-11-03T07:00:00Z,30.2583,-88.2131,0.0,7.37,130.8,-9999.0,'1111122,1111122,1111122' 
DISL,ioos:station:DISL:KATA:1,2011-11-03T07:30:00Z,30.2583,-88.2131,0.0,7.62,136.6,-9999.0,'1111122,1111122,1111122' 
DISL,ioos:station:DISL:KATA:1,2011-11-03T08:00:00Z,30.2583,-88.2131,0.0,8.17,134.8,-9999.0,'1111122,1111122,1111122' 
DISL,ioos:station:DISL:KATA:1,2011-11-03T08:30:00Z,30.2583,-88.2131,0.0,7.45,142.2,-9999.0,'1111122,1111122,1111122' 
DISL,ioos:station:DISL:KATA:1,2011-11-03T09:00:00Z,30.2583,-88.2131,0.0,7.61,143.2,-9999.0,'1111122,1111122,1111122' 
DISL,ioos:station:DISL:KATA:1,2011-11-03T09:30:00Z,30.2583,-88.2131,0.0,6.39,150.5,-9999.0,'1111122,1111122,1111122' 
DISL,ioos:station:DISL:KATA:1,2011-11-03T10:00:00Z,30.2583,-88.2131,0.0,8.45,151.1,-9999.0,'1111122,1111122,1111122' 
DISL,ioos:station:DISL:KATA:1,2011-11-03T10:30:00Z,30.2583,-88.2131,0.0,6.99,152.5,-9999.0,'1111122,1111122,1111122' 
DISL,ioos:station:DISL:KATA:1,2011-11-03T11:00:00Z,30.2583,-88.2131,0.0,8.57,139.8,-9999.0,'1111122,1111122,1111122' 
DISL,ioos:station:DISL:KATA:1,2011-11-03T11:30:00Z,30.2583,-88.2131,0.0,5.68,156.0,-9999.0,'1111122,1111122,1111122' 
DISL,ioos:station:DISL:KATA:1,2011-11-03T12:00:00Z,30.2583,-88.2131,0.0,6.85,149.8,-9999.0,'1111122,1111122,1111122' 
DISL,ioos:station:DISL:KATA:1,2011-11-03T12:30:00Z,30.2583,-88.2131,0.0,6.82,155.5,-9999.0,'1111122,1111122,1111122' 
DISL,ioos:station:DISL:KATA:1,2011-11-03T13:00:00Z,30.2583,-88.2131,0.0,8.32,153.6,-9999.0,'1111122,1111122,1111122' 
DISL,ioos:station:DISL:KATA:1,2011-11-03T13:30:00Z,30.2583,-88.2131,0.0,8.18,156.3,-9999.0,'1111122,1111122,1111122' 
DISL,ioos:station:DISL:KATA:1,2011-11-03T14:00:00Z,30.2583,-88.2131,0.0,8.03,159.0,-9999.0,'1111122,1111122,1111122' 
DISL,ioos:station:DISL:KATA:1,2011-11-03T14:30:00Z,30.2583,-88.2131,0.0,7.24,157.8,-9999.0,'1111122,1111122,1111122' 
DISL,ioos:station:DISL:KATA:1,2011-11-03T15:00:00Z,30.2583,-88.2131,0.0,7.42,159.5,-9999.0,'1111122,1111122,1111122' 
DISL,ioos:station:DISL:KATA:1,2011-11-03T15:30:00Z,30.2583,-88.2131,0.0,8.37,171.8,-9999.0,'1111122,1111122,1111122' 
DISL,ioos:station:DISL:KATA:1,2011-11-03T16:00:00Z,30.2583,-88.2131,0.0,6.39,196.1,-9999.0,'1111122,1111122,1111122' 
DISL,ioos:station:DISL:KATA:1,2011-11-03T16:30:00Z,30.2583,-88.2131,0.0,9.66,198.2,-9999.0,'1111122,1111122,1111122' 
DISL,ioos:station:DISL:KATA:1,2011-11-03T17:00:00Z,30.2583,-88.2131,0.0,7.36,194.7,-9999.0,'1111122,1111122,1111122' 
DISL,ioos:station:DISL:KATA:1,2011-11-03T17:30:00Z,30.2583,-88.2131,0.0,8.15,203.2,-9999.0,'1111122,1111122,1111122' 
DISL,ioos:station:DISL:KATA:1,2011-11-03T18:00:00Z,30.2583,-88.2131,0.0,7.41,212.6,-9999.0,'1111122,1111122,1111122' 
DISL,ioos:station:DISL:KATA:1,2011-11-03T18:30:00Z,30.2583,-88.2131,0.0,7.8,214.2,-9999.0,'1111122,1111122,1111122' 
DISL,ioos:station:DISL:KATA:1,2011-11-03T19:00:00Z,30.2583,-88.2131,0.0,8.66,247.9,-9999.0,'1111122,1111122,1111122' 
DISL,ioos:station:DISL:KATA:1,2011-11-03T19:30:00Z,30.2583,-88.2131,0.0,7.01,250.7,-9999.0,'1111122,1111122,1111122' 
DISL,ioos:station:DISL:KATA:1,2011-11-03T20:00:00Z,30.2583,-88.2131,0.0,6.91,258.8,-9999.0,'1111122,1111122,1111122' 
DISL,ioos:station:DISL:KATA:1,2011-11-03T20:30:00Z,30.2583,-88.2131,0.0,7.67,266.3,-9999.0,'1111122,1111122,1111122' 
DISL,ioos:station:DISL:KATA:1,2011-11-03T21:00:00Z,30.2583,-88.2131,0.0,12.15,319.4,-9999.0,'1111122,1111122,1111122' 
DISL,ioos:station:DISL:KATA:1,2011-11-03T21:30:00Z,30.2583,-88.2131,0.0,10.33,322.0,-9999.0,'1111122,1111122,1111122' 
DISL,ioos:station:DISL:KATA:1,2011-11-03T22:00:00Z,30.2583,-88.2131,0.0,7.19,323.5,-9999.0,'1111122,1111122,1111122' 
DISL,ioos:station:DISL:KATA:1,2011-11-03T22:30:00Z,30.2583,-88.2131,0.0,9.27,320.4,-9999.0,'1111122,1111122,1111122' 
DISL,ioos:station:DISL:KATA:1,2011-11-03T23:00:00Z,30.2583,-88.2131,0.0,10.05,332.1,-9999.0,'1111122,1111122,1111122' 
DISL,ioos:station:DISL:KATA:1,2011-11-03T23:30:00Z,30.2583,-88.2131,0.0,9.14,329.5,-9999.0,'1111122,1111122,1111122' 
DISL,ioos:station:DISL:KATA:1,2011-11-04T00:00:00Z,30.2583,-88.2131,0.0,10.44,328.2,-9999.0,'1111122,1111122,1111122' 
DISL,ioos:station:DISL:KATA:1,2011-11-04T00:30:00Z,30.2583,-88.2131,0.0,11.25,323.6,-9999.0,'1111122,1111122,1111122' 
DISL,ioos:station:DISL:KATA:1,2011-11-04T01:00:00Z,30.2583,-88.2131,0.0,11.66,321.3,-9999.0,'1111122,1111122,1111122' 
DISL,ioos:station:DISL:KATA:1,2011-11-04T01:30:00Z,30.2583,-88.2131,0.0,10.59,336.1,-9999.0,'1111122,1111122,1111122' 
DISL,ioos:station:DISL:KATA:1,2011-11-04T02:00:00Z,30.2583,-88.2131,0.0,10.01,349.5,-9999.0,'1111122,1111122,1111122' 
DISL,ioos:station:DISL:KATA:1,2011-11-04T02:30:00Z,30.2583,-88.2131,0.0,9.99,355.5,-9999.0,'1111122,1111122,1111122' 
DISL,ioos:station:DISL:KATA:1,2011-11-04T03:00:00Z,30.2583,-88.2131,0.0,10.07,355.1,-9999.0,'1111122,1111122,1111122' 
DISL,ioos:station:DISL:KATA:1,2011-11-04T03:30:00Z,30.2583,-88.2131,0.0,9.36,354.2,-9999.0,'1111122,1111122,1111122' 
DISL,ioos:station:DISL:KATA:1,2011-11-04T04:00:00Z,30.2583,-88.2131,0.0,10.1,347.3,-9999.0,'1111122,1111122,1111122' 
DISL,ioos:station:DISL:KATA:1,2011-11-04T04:30:00Z,30.2583,-88.2131,0.0,11.04,347.7,-9999.0,'1111122,1111122,1111122' 
DISL,ioos:station:DISL:KATA:1,2011-11-04T05:00:00Z,30.2583,-88.2131,0.0,6.85,347.2,-9999.0,'1111122,1111122,1111122' 
DISL,ioos:station:DISL:KATA:1,2011-11-04T05:30:00Z,30.2583,-88.2131,0.0,7.06,339.0,-9999.0,'1111122,1111122,1111122' 
DISL,ioos:station:DISL:KATA:1,2011-11-04T06:00:00Z,30.2583,-88.2131,0.0,6.45,333.7,-9999.0,'1111122,1111122,1111122' 
DISL,ioos:station:DISL:KATA:1,2011-11-04T06:30:00Z,30.2583,-88.2131,0.0,6.66,332.2,-9999.0,'1111122,1111122,1111122' 
DISL,ioos:station:DISL:KATA:1,2011-11-04T07:00:00Z,30.2583,-88.2131,0.0,7.47,333.4,-9999.0,'1111122,1111122,1111122' 
DISL,ioos:station:DISL:KATA:1,2011-11-04T07:30:00Z,30.2583,-88.2131,0.0,7.98,335.1,-9999.0,'1111122,1111122,1111122' 
DISL,ioos:station:DISL:KATA:1,2011-11-04T08:00:00Z,30.2583,-88.2131,0.0,6.07,327.9,-9999.0,'1111122,1111122,1111122' 
DISL,ioos:station:DISL:KATA:1,2011-11-04T08:30:00Z,30.2583,-88.2131,0.0,6.62,323.3,-9999.0,'1111122,1111122,1111122' 
DISL,ioos:station:DISL:KATA:1,2011-11-04T09:00:00Z,30.2583,-88.2131,0.0,7.73,321.5,-9999.0,'1111122,1111122,1111122' 
DISL,ioos:station:DISL:KATA:1,2011-11-04T09:30:00Z,30.2583,-88.2131,0.0,8.76,323.1,-9999.0,'1111122,1111122,1111122' 
DISL,ioos:station:DISL:KATA:1,2011-11-04T10:00:00Z,30.2583,-88.2131,0.0,8.68,323.6,-9999.0,'1111122,1111122,1111122' 
DISL,ioos:station:DISL:KATA:1,2011-11-04T10:30:00Z,30.2583,-88.2131,0.0,8.44,330.5,-9999.0,'1111122,1111122,1111122' 
DISL,ioos:station:DISL:KATA:1,2011-11-04T11:00:00Z,30.2583,-88.2131,0.0,7.93,334.2,-9999.0,'1111122,1111122,1111122' 
DISL,ioos:station:DISL:KATA:1,2011-11-04T11:30:00Z,30.2583,-88.2131,0.0,7.49,335.7,-9999.0,'1111122,1111122,1111122' 
DISL,ioos:station:DISL:KATA:1,2011-11-04T12:00:00Z,30.2583,-88.2131,0.0,7.23,335.0,-9999.0,'1111122,1111122,1111122' 
DISL,ioos:station:DISL:KATA:1,2011-11-04T12:30:00Z,30.2583,-88.2131,0.0,7.56,331.9,-9999.0,'1111122,1111122,1111122' 
DISL,ioos:station:DISL:KATA:1,2011-11-04T13:00:00Z,30.2583,-88.2131,0.0,7.03,328.0,-9999.0,'1111122,1111122,1111122' 
DISL,ioos:station:DISL:KATA:1,2011-11-04T13:30:00Z,30.2583,-88.2131,0.0,7.37,335.1,-9999.0,'1111122,1111122,1111122' 
DISL,ioos:station:DISL:KATA:1,2011-11-04T14:00:00Z,30.2583,-88.2131,0.0,6.37,342.4,-9999.0,'1111122,1111122,1111122' 
DISL,ioos:station:DISL:KATA:1,2011-11-04T14:30:00Z,30.2583,-88.2131,0.0,5.64,331.7,-9999.0,'1111122,1111122,1111122' 
DISL,ioos:station:DISL:KATA:1,2011-11-04T15:00:00Z,30.2583,-88.2131,0.0,5.82,338.2,-9999.0,'1111122,1111122,1111122' 
DISL,ioos:station:DISL:KATA:1,2011-11-04T15:30:00Z,30.2583,-88.2131,0.0,5.9,342.8,-9999.0,'1111122,1111122,1111122' 
DISL,ioos:station:DISL:KATA:1,2011-11-04T16:00:00Z,30.2583,-88.2131,0.0,5.67,348.9,-9999.0,'1111122,1111122,1111122' 
DISL,ioos:station:DISL:KATA:1,2011-11-04T16:30:00Z,30.2583,-88.2131,0.0,6.71,1.09,-9999.0,'1111122,1111122,1111122' 
DISL,ioos:station:DISL:KATA:1,2011-11-04T17:00:00Z,30.2583,-88.2131,0.0,8.79,1.124,-9999.0,'1111122,1111122,1111122' 
DISL,ioos:station:DISL:KATA:1,2011-11-04T17:30:00Z,30.2583,-88.2131,0.0,8.21,349.7,-9999.0,'1111122,1111122,1111122' 
DISL,ioos:station:DISL:KATA:1,2011-11-04T18:00:00Z,30.2583,-88.2131,0.0,6.03,3.733,-9999.0,'1111122,1111122,1111122' 
DISL,ioos:station:DISL:KATA:1,2011-11-04T18:30:00Z,30.2583,-88.2131,0.0,6.16,359.6,-9999.0,'1111122,1111122,1111122' 
DISL,ioos:station:DISL:KATA:1,2011-11-04T19:00:00Z,30.2583,-88.2131,0.0,5.79,357.4,-9999.0,'1111122,1111122,1111122' 
DISL,ioos:station:DISL:KATA:1,2011-11-04T19:30:00Z,30.2583,-88.2131,0.0,5.33,342.2,-9999.0,'1111122,1111122,1111122' 
DISL,ioos:station:DISL:KATA:1,2011-11-04T20:00:00Z,30.2583,-88.2131,0.0,4.72,345.2,-9999.0,'1111122,1111122,1111122' 
DISL,ioos:station:DISL:KATA:1,2011-11-04T20:30:00Z,30.2583,-88.2131,0.0,5.27,351.5,-9999.0,'1111122,1111122,1111122' 
DISL,ioos:station:DISL:KATA:1,2011-11-04T21:00:00Z,30.2583,-88.2131,0.0,7.45,0.913,-9999.0,'1111122,1111122,1111122' 
DISL,ioos:station:DISL:KATA:1,2011-11-04T21:30:00Z,30.2583,-88.2131,0.0,7.09,354.9,-9999.0,'1111122,1111122,1111122' 
DISL,ioos:station:DISL:KATA:1,2011-11-04T22:00:00Z,30.2583,-88.2131,0.0,6.64,350.9,-9999.0,'1111122,1111122,1111122' 
DISL,ioos:station:DISL:KATA:1,2011-11-04T22:30:00Z,30.2583,-88.2131,0.0,7.5,4.211,-9999.0,'1111122,1111122,1111122' 
DISL,ioos:station:DISL:KATA:1,2011-11-04T23:00:00Z,30.2583,-88.2131,0.0,6.82,3.603,-9999.0,'1111122,1111122,1111122' 
DISL,ioos:station:DISL:KATA:1,2011-11-04T23:30:00Z,30.2583,-88.2131,0.0,6.45,358.3,-9999.0,'1111122,1111122,1111122' 
DISL,ioos:station:DISL:KATA:1,2011-11-05T00:00:00Z,30.2583,-88.2131,0.0,5.66,349.4,-9999.0,'1111122,1111122,1111122' 
DISL,ioos:station:DISL:KATA:1,2011-11-05T00:30:00Z,30.2583,-88.2131,0.0,5.82,346.6,-9999.0,'1111122,1111122,1111122' 
DISL,ioos:station:DISL:KATA:1,2011-11-05T01:00:00Z,30.2583,-88.2131,0.0,5.23,336.5,-9999.0,'1111122,1111122,1111122' 
DISL,ioos:station:DISL:KATA:1,2011-11-05T01:30:00Z,30.2583,-88.2131,0.0,5.84,331.9,-9999.0,'1111122,1111122,1111122' 
DISL,ioos:station:DISL:KATA:1,2011-11-05T02:00:00Z,30.2583,-88.2131,0.0,6.8,332.6,-9999.0,'1111122,1111122,1111122' 
DISL,ioos:station:DISL:KATA:1,2011-11-05T02:30:00Z,30.2583,-88.2131,0.0,6.76,329.5,-9999.0,'1111122,1111122,1111122' 
DISL,ioos:station:DISL:KATA:1,2011-11-05T03:00:00Z,30.2583,-88.2131,0.0,7.31,342.3,-9999.0,'1111122,1111122,1111122' 
DISL,ioos:station:DISL:KATA:1,2011-11-05T03:30:00Z,30.2583,-88.2131,0.0,7.2,343.6,-9999.0,'1111122,1111122,1111122' 
DISL,ioos:station:DISL:KATA:1,2011-11-05T04:00:00Z,30.2583,-88.2131,0.0,7.69,341.1,-9999.0,'1111122,1111122,1111122' 
DISL,ioos:station:DISL:KATA:1,2011-11-05T04:30:00Z,30.2583,-88.2131,0.0,7.88,357.4,-9999.0,'1111122,1111122,1111122' 